McCook, NE

4:40 PM CST on December 02, 2016 (GMT -0600)
McCook Municipal

Weather History for KMCK - July, 2013

Change the Weather History Date:

Monday, July 15, 2013

  Actual Average Record
Temperature  
Mean Temperature 76 °F 76 °F  
Max Temperature 88 °F 90 °F 112 °F (1925)
Min Temperature 63 °F 62 °F 47 °F (2014)
Cooling Degree Days 10    
Growing Degree Days 24 (Base 50)    
Moisture  
Dew Point 59 °F    
Average Humidity 67    
Maximum Humidity 100    
Minimum Humidity 26    
Precipitation  
Precipitation 0.00 in 0.10 in 1.73 in (1999)
Month to date precipitation 1.31 1.60  
Year to date precipitation 7.30 12.92  
Sea Level Pressure  
Sea Level Pressure 30.13 in    
Wind  
Wind Speed 5 mph (SE)    
Max Wind Speed 17 mph    
Max Gust Speed 26 mph    
Visibility 7 miles    
Events Fog    
T = Trace of Precipitation, MM = Missing Value Source: NWS Daily Summary

Daily Weather History Graph

Daily Weather History Graph

Search for Another Location

Airport or City:

Trip Planner

Search our weather history database for the weather conditions in past years. The results will help you decide how hot, cold, wet, or windy it might be!

Date:

Astronomy

Jul. 15, 2013 Rise Set
Actual Time 6:25 AM CDT 9:10 PM CDT
Civil Twilight 5:53 AM CDT 9:42 PM CDT
Nautical Twilight 5:13 AM CDT 10:22 PM CDT
Astronomical Twilight 4:27 AM CDT 11:07 PM CDT
Moon 1:47 PM CDT (7/15) 12:23 AM CDT (7/15)
Length of Visible Light 15h 48m
Length of Day
14h 44m
Waxing Crescent, 45% of the Moon is Illuminated
Jul 15
Waxing Crescent
Jul 15
First Quarter
Jul 22
Full
Jul 29
Last Quarter
Aug 6
New

Hourly Weather History & Observations

Time (CDT) Temp. Heat Index Dew Point Humidity Pressure Visibility Wind Dir Wind Speed Gust Speed Precip Events Conditions
12:53 AM 70.0 °F - 64.9 °F 84% 30.10 in 10.0 mi SE 5.8 mph - N/A   Mostly Cloudy
1:53 AM 68.0 °F - 64.0 °F 87% 30.11 in 10.0 mi SE 4.6 mph - N/A   Clear
2:53 AM 66.9 °F - 63.0 °F 87% 30.12 in 10.0 mi Calm Calm - N/A   Partly Cloudy
3:53 AM 64.9 °F - 63.0 °F 93% 30.12 in 7.0 mi Calm Calm - N/A   Clear
4:53 AM 64.9 °F - 62.1 °F 90% 30.13 in 6.0 mi Calm Calm - N/A   Mostly Cloudy
5:53 AM 64.9 °F - 63.0 °F 93% 30.14 in 5.0 mi Calm Calm - N/A   Overcast
6:53 AM 64.0 °F - 62.1 °F 93% 30.14 in 3.0 mi Calm Calm - N/A   Clear
7:00 AM 64.4 °F - 62.6 °F 94% 30.19 in 1.8 mi SSE 3.5 mph - N/A   Clear
7:11 AM 62.6 °F - 62.6 °F 100% 30.19 in 0.5 mi SE 3.5 mph - N/A Fog Fog
7:31 AM 62.6 °F - 62.6 °F 100% 30.20 in 1.0 mi Calm Calm - N/A   Mist
7:36 AM 64.4 °F - 62.6 °F 94% 30.20 in 2.0 mi Calm Calm - N/A   Scattered Clouds
7:53 AM 64.9 °F - 63.0 °F 93% 30.15 in 2.0 mi NE 3.5 mph - N/A   Partly Cloudy
8:33 AM 68.0 °F - 64.4 °F 88% 30.22 in 3.0 mi NE 3.5 mph - N/A   Clear
8:53 AM 69.1 °F - 64.0 °F 84% 30.17 in 4.0 mi East 3.5 mph - N/A   Haze
9:53 AM 73.0 °F - 64.0 °F 73% 30.17 in 9.0 mi ESE 4.6 mph - N/A   Clear
10:53 AM 75.9 °F - 62.1 °F 62% 30.16 in 10.0 mi South 6.9 mph - N/A   Clear
11:53 AM 79.0 °F - 59.0 °F 50% 30.15 in 10.0 mi SSE 10.4 mph - N/A   Scattered Clouds
12:53 PM 80.1 °F 80.6 °F 57.9 °F 47% 30.14 in 10.0 mi South 11.5 mph - N/A   Scattered Clouds
1:53 PM 84.0 °F 83.0 °F 55.9 °F 38% 30.12 in 10.0 mi South 12.7 mph 18.4 mph N/A   Partly Cloudy
2:53 PM 84.9 °F 83.3 °F 54.0 °F 34% 30.10 in 10.0 mi SE 11.5 mph 16.1 mph N/A   Clear
3:53 PM 86.0 °F - 52.0 °F 31% 30.09 in 10.0 mi ESE 10.4 mph - N/A   Clear
4:53 PM 86.0 °F - 51.1 °F 30% 30.07 in 10.0 mi ESE 11.5 mph - N/A   Mostly Cloudy
5:53 PM 87.1 °F - 48.0 °F 26% 30.05 in 10.0 mi SSE 12.7 mph 18.4 mph N/A   Partly Cloudy
6:53 PM 86.0 °F - 50.0 °F 29% 30.05 in 10.0 mi ESE 11.5 mph - N/A   Partly Cloudy
7:53 PM 82.9 °F - 52.0 °F 34% 30.05 in 10.0 mi SE 11.5 mph - N/A   Scattered Clouds
8:53 PM 80.1 °F 80.0 °F 54.0 °F 40% 30.07 in 10.0 mi SE 17.3 mph 26.5 mph N/A   Clear
9:53 PM 75.9 °F - 55.0 °F 48% 30.09 in 10.0 mi SE 12.7 mph - N/A   Clear
10:53 PM 73.0 °F - 57.9 °F 59% 30.12 in 10.0 mi SE 12.7 mph 20.7 mph N/A   Clear
11:53 PM 70.0 °F - 59.0 °F 68% 30.13 in 10.0 mi SE 8.1 mph - N/A   Clear